Date,TemperatureHighF,TemperatureAvgF,TemperatureLowF,DewpointHighF,DewpointAvgF,DewpointLowF,HumidityHigh,HumidityAvg,HumidityLow,PressureMaxIn,PressureMinIn,WindSpeedMaxMPH,WindSpeedAvgMPH,GustSpeedMaxMPH,PrecipitationSumIn
2014-1-1,25,16,7,12,8,4,88,72,53,30.44,30.23,4,0,0,0.00
2014-1-2,15,10,1,13,6,-3,90,87,84,30.42,29.94,0,0,0,0.31
2014-1-3,12,3,-8,9,-1,-12,90,83,77,30.46,29.83,1,0,0,0.04
2014-1-4,24,7,-14,10,-3,-18,88,65,36,30.54,30.31,4,0,0,0.00
2014-1-5,39,26,9,31,18,5,96,73,42,30.37,30.00,3,0,0,0.01
2014-1-6,52,34,24,52,32,17,98,93,73,29.99,29.32,3,0,0,0.43
2014-1-7,23,10,4,15,-3,-10,71,57,47,30.25,29.54,11,1,0,0.00
2014-1-8,20,10,-1,6,0,-8,81,63,49,30.51,30.25,4,0,0,0.00
2014-1-9,28,14,3,13,6,0,87,72,50,30.70,30.47,3,0,0,0.00
2014-1-10,35,22,1,32,20,-2,94,90,86,30.65,30.32,3,0,0,0.01
2014-1-11,54,41,32,54,40,30,99,97,94,30.31,29.30,6,0,0,0.45
2014-1-12,49,38,32,49,32,27,98,79,66,30.00,29.31,4,0,0,0.03
2014-1-13,51,38,25,37,29,23,93,73,45,30.15,29.91,14,1,0,0.00
2014-1-14,46,41,36,43,38,34,98,92,74,29.90,29.67,3,0,0,0.63
2014-1-15,45,35,28,37,32,27,98,90,68,30.05,29.79,2,0,0,0.01
2014-1-16,37,32,28,36,31,27,97,96,94,29.97,29.90,0,0,0,0.00
2014-1-17,42,33,26,33,28,23,98,83,48,30.02,29.94,5,0,0,0.01
2014-1-18,33,30,27,32,29,25,96,94,91,29.95,29.68,0,0,0,0.28
2014-1-19,33,29,27,31,25,21,95,86,76,29.77,29.57,6,0,0,0.02
2014-1-20,40,31,20,30,24,11,90,74,61,29.93,29.52,6,0,0,0.00
2014-1-21,19,13,9,11,2,-3,84,63,47,30.11,29.93,1,0,0,0.00
2014-1-22,19,9,3,4,-2,-6,83,61,43,29.95,29.73,2,0,0,0.00
2014-1-23,20,8,0,3,-3,-8,82,60,40,30.20,29.95,2,0,0,0.00
2014-1-24,17,9,1,0,-3,-8,80,60,39,30.32,30.07,3,0,0,0.00
2014-1-25,33,22,11,25,13,-2,89,68,50,30.07,29.38,10,1,0,0.00
2014-1-26,21,16,10,16,3,-4,84,57,40,29.91,29.38,9,0,0,0.00
2014-1-27,41,23,16,36,15,3,93,70,48,30.04,29.56,4,0,0,0.04
2014-1-28,19,13,7,3,-3,-9,62,49,37,30.35,30.05,3,0,0,0.00
2014-1-29,23,16,10,4,0,-4,71,49,32,30.28,30.02,3,0,0,0.00
2014-1-30,28,17,5,9,4,-3,78,59,41,30.48,30.23,4,0,0,0.00
2014-1-31,40,28,13,24,17,7,90,64,41,30.24,30.06,3,0,0,0.00
2014-2-1,45,34,23,29,24,19,87,68,45,30.38,30.07,4,0,0,0.00
2014-2-2,49,37,28,40,34,26,96,89,63,30.11,29.89,4,0,0,0.04
2014-2-3,32,29,20,31,26,16,96,87,68,30.34,30.11,0,0,0,0.14
2014-2-4,34,24,11,28,19,9,97,83,59,30.51,30.34,1,0,0,0.00
2014-2-5,26,24,22,24,22,20,94,91,84,30.34,29.71,0,0,0,0.96
2014-2-6,28,18,6,22,12,4,92,81,55,30.32,30.00,2,0,0,0.00
2014-2-7,28,15,-2,17,8,-5,92,75,53,30.31,30.20,3,0,0,0.00
2014-2-8,30,19,3,14,7,-3,83,61,38,30.34,30.18,3,0,0,0.00
2014-2-9,29,23,15,22,15,8,92,73,54,30.23,29.99,3,0,0,0.00
2014-2-10,26,16,1,20,10,-2,92,79,55,30.26,29.95,2,0,0,0.10
2014-2-11,24,8,-7,9,0,-10,89,71,45,30.51,30.27,2,0,0,0.00
2014-2-12,29,10,-8,5,-3,-12,89,61,29,30.62,30.47,2,0,0,0.00
2014-2-13,32,23,8,31,20,1,97,89,71,30.46,29.10,1,0,0,0.93
2014-2-14,32,29,25,32,27,22,97,90,80,29.77,28.91,5,0,0,0.47
2014-2-15,32,27,21,28,25,19,95,91,79,29.89,29.56,2,0,0,0.18
2014-2-16,30,22,16,26,17,11,96,79,59,30.02,29.57,5,0,0,0.00
2014-2-17,27,15,3,12,5,-4,78,65,42,30.41,30.04,3,0,0,0.00
2014-2-18,26,14,-1,24,10,-6,94,85,75,30.42,30.00,0,0,0,0.43
2014-2-19,31,25,15,30,23,12,94,89,77,30.14,29.80,1,0,0,0.16
2014-2-20,46,34,23,34,28,22,97,81,49,30.27,29.89,4,0,0,0.15
2014-2-21,36,33,30,35,32,29,97,97,95,30.19,29.73,1,0,0,0.50
2014-2-22,50,37,25,34,27,24,98,71,38,29.99,29.87,13,1,0,0.01
2014-2-23,47,38,32,30,27,24,89,66,46,30.02,29.81,6,0,0,0.00
2014-2-24,34,28,19,29,17,9,89,64,48,29.99,29.79,6,0,0,0.00
2014-2-25,27,20,11,12,9,5,77,63,47,30.02,29.93,3,0,0,0.00
2014-2-26,28,15,4,13,4,-5,87,64,39,29.98,29.81,4,0,0,0.00
2014-2-27,27,14,2,13,2,-6,82,60,38,29.96,29.63,8,1,0,0.00
2014-2-28,24,12,1,2,-4,-9,66,50,31,30.50,29.97,3,0,0,0.00
2014-3-1,32,18,-4,18,4,-9,80,58,36,30.50,30.12,7,1,0,0.00
2014-3-2,39,32,27,26,22,17,81,67,52,30.12,30.00,3,0,0,0.00
2014-3-3,26,17,2,17,6,-4,75,61,48,30.35,30.04,1,0,0,0.00
2014-3-4,29,14,-6,12,0,-9,89,58,32,30.44,30.30,4,0,0,0.00
2014-3-5,25,20,10,18,14,6,89,79,65,30.55,30.30,2,0,0,0.01
2014-3-6,29,14,-1,6,-2,-7,81,53,22,30.70,30.57,4,0,0,0.00
2014-3-7,37,19,-5,20,8,-9,89,65,40,30.56,30.01,6,0,0,0.00
2014-3-8,52,33,15,31,23,13,91,70,41,30.00,29.75,2,0,0,0.00
2014-3-9,39,31,22,23,17,11,78,58,37,29.98,29.91,3,0,0,0.00
2014-3-10,42,33,26,28,23,13,85,67,51,29.93,29.66,2,0,0,0.00
2014-3-11,53,40,27,35,30,25,94,70,42,29.75,29.53,4,0,0,0.00
2014-3-12,41,35,32,35,32,28,97,88,76,29.77,29.09,1,0,0,0.65
2014-3-13,34,19,12,33,14,3,97,79,60,30.00,29.07,4,0,0,0.00
2014-3-14,36,24,8,22,10,0,76,58,39,30.22,29.94,10,1,0,0.03
2014-3-15,54,40,32,37,30,22,95,68,45,29.93,29.70,6,1,0,0.06
2014-3-16,33,27,19,23,12,4,74,54,36,30.24,29.94,4,0,0,0.00
2014-3-17,32,20,13,9,2,-2,65,46,29,30.25,30.09,1,0,0,0.00
2014-3-18,38,22,6,16,8,2,86,58,26,30.41,30.22,3,0,0,0.00
2014-3-19,41,29,14,30,22,12,94,76,52,30.44,30.04,5,0,0,0.00
2014-3-20,48,38,31,40,32,27,98,82,58,30.06,29.66,5,0,0,0.66
2014-3-21,41,34,28,27,24,21,77,67,54,30.07,29.78,8,1,0,0.00
2014-3-22,51,34,23,39,25,19,88,71,49,30.10,29.69,6,1,0,0.02
2014-3-23,40,32,22,26,19,6,84,60,41,30.13,29.96,2,0,0,0.00
2014-3-24,31,21,11,10,5,-1,68,50,34,30.22,30.10,3,0,0,0.00
2014-3-25,35,25,11,18,11,6,84,57,39,30.19,29.99,4,0,0,0.00
2014-3-26,34,28,21,20,14,4,75,58,41,30.08,29.69,5,1,0,0.00
2014-3-27,41,29,16,23,9,1,69,44,27,30.38,30.09,3,0,0,0.00
2014-3-28,50,42,34,47,34,15,94,73,43,30.27,29.97,7,1,0,0.05
2014-3-29,52,42,36,42,38,34,96,87,65,30.29,30.04,4,0,0,0.73
2014-3-30,38,36,34,37,35,34,98,97,96,30.04,29.70,2,0,0,1.70
2014-3-31,38,34,32,37,33,30,98,94,84,30.08,29.77,2,0,0,0.87
2014-4-1,55,40,28,38,31,26,96,73,44,30.15,30.05,3,0,0,0.01
2014-4-2,57,40,26,38,31,25,96,74,47,30.16,30.04,3,0,0,0.00
2014-4-3,55,41,28,32,28,24,92,63,37,30.18,30.08,2,0,0,0.00
2014-4-4,49,38,28,35,29,24,95,71,47,30.21,29.95,9,1,0,0.26
2014-4-5,48,39,32,44,33,25,98,81,55,29.98,29.75,4,0,0,0.17
2014-4-6,56,41,28,28,26,21,86,59,26,30.22,29.98,4,0,0,0.00
2014-4-7,59,43,27,39,27,19,93,60,29,30.27,29.95,6,1,0,0.05
2014-4-8,64,48,39,57,44,33,98,86,58,29.95,29.32,4,0,0,0.58
2014-4-9,57,43,30,40,30,18,95,63,29,30.00,29.55,5,0,0,0.00
2014-4-10,63,44,24,33,24,16,89,51,21,30.18,30.01,19,1,0,0.00
2014-4-11,72,56,46,53,43,33,95,65,41,30.05,29.93,10,1,0,0.09
2014-4-12,69,52,36,51,39,34,98,67,30,30.23,30.01,13,0,0,0.10
2014-4-13,59,45,37,48,41,34,96,84,63,30.29,30.06,3,0,0,0.03
2014-4-14,77,58,36,60,48,35,97,73,46,30.07,29.86,17,3,0,0.00
2014-4-15,64,59,39,60,56,37,95,90,77,29.90,29.54,10,2,0,0.74
2014-4-16,42,34,25,36,26,20,96,77,49,30.66,29.78,3,0,0,0.27
2014-4-17,45,32,20,26,22,18,91,69,41,30.86,30.67,3,0,0,0.00
2014-4-18,47,34,21,33,28,20,96,78,53,30.71,30.29,4,0,0,0.00
2014-4-19,63,45,27,41,32,26,96,66,36,30.46,30.22,2,0,0,0.00
2014-4-20,58,42,25,28,24,20,91,55,26,30.56,30.37,5,0,0,0.00
2014-4-21,72,52,29,33,26,18,91,47,15,30.37,29.86,10,1,0,0.00
2014-4-22,77,60,45,52,42,32,93,54,29,29.85,29.49,10,1,0,0.03
2014-4-23,53,49,44,51,44,33,96,83,66,29.68,29.45,4,0,0,0.23
2014-4-24,58,45,37,34,28,22,69,52,32,29.77,29.67,6,1,0,0.00
2014-7-2,71,70,69,70,69,68,97,96,94,29.94,29.89,4,1,0,0.32
2014-7-3,88,75,67,77,71,67,99,89,67,30.03,29.89,3,0,0,0.11
2014-7-4,71,67,61,70,66,61,98,97,91,30.02,29.84,1,0,0,0.80
2014-7-5,79,67,55,60,56,53,98,72,45,30.04,29.84,3,0,0,0.06
2014-7-6,83,71,56,63,57,50,81,62,42,30.03,29.88,9,1,0,0.00
2014-7-7,85,74,67,72,66,60,97,79,60,29.88,29.70,6,0,0,0.49
2014-7-8,87,77,67,74,70,66,98,80,61,29.80,29.66,8,1,0,0.12
2014-7-9,85,77,66,70,67,63,95,73,51,29.96,29.66,5,1,0,0.37
2014-7-10,80,69,59,68,62,57,99,81,52,30.18,29.95,2,0,0,0.00
2014-7-11,81,67,55,63,58,54,97,76,44,30.27,30.18,2,0,0,0.00
2014-7-12,86,70,52,70,61,51,98,75,45,30.25,30.12,3,0,0,0.00
2014-7-13,84,75,67,71,66,58,94,73,60,30.13,29.89,6,2,0,0.02
2014-7-14,86,77,70,74,70,68,97,82,58,29.92,29.85,6,0,0,0.02
2014-7-15,84,75,72,75,73,71,98,92,70,29.87,29.76,5,0,0,0.38
2014-7-16,75,71,62,73,69,61,98,96,86,29.88,29.76,0,0,0,0.37
2014-7-17,82,68,58,66,60,56,100,80,49,30.10,29.88,3,0,0,0.00
2014-7-18,81,66,53,66,59,52,99,80,44,30.26,30.10,0,0,0,0.00
2014-7-19,76,65,53,68,61,52,100,87,61,30.31,30.24,0,0,0,0.00
2014-7-20,80,66,57,63,58,53,98,78,40,30.25,30.16,3,0,0,0.00
2014-7-21,84,67,51,66,58,50,98,77,45,30.24,30.15,2,0,0,0.00
2014-7-22,90,74,57,73,65,56,98,76,51,30.18,30.00,3,0,0,0.00
2014-7-23,90,79,70,76,71,67,97,78,58,29.99,29.74,8,1,0,0.38
2014-7-24,81,71,58,71,66,56,98,85,59,29.94,29.77,2,0,0,0.03
2014-7-25,82,66,49,66,58,48,99,80,52,30.02,29.94,3,0,0,0.00
2014-7-26,84,70,56,65,60,55,98,74,46,30.00,29.88,5,1,0,0.00
2014-7-27,77,70,63,72,67,61,97,91,78,29.91,29.67,4,0,0,0.20
2014-7-28,82,69,62,73,67,62,99,92,71,29.70,29.45,4,0,0,0.81
2014-7-29,77,66,57,64,60,56,99,83,55,29.97,29.57,3,0,0,0.01
2014-7-30,71,60,55,61,57,54,96,89,65,30.07,29.97,0,0,0,0.00
2014-7-31,80,66,50,65,58,49,99,79,55,30.18,30.07,5,0,0,0.00
2014-8-1,85,69,56,71,63,55,99,83,54,30.24,30.18,3,0,0,0.01
2014-8-2,73,67,56,68,62,55,98,87,67,30.25,30.16,4,0,0,0.00
2014-8-3,74,64,54,66,60,53,98,88,70,30.18,30.07,2,0,0,0.00
2014-8-4,86,70,58,73,65,57,99,87,52,30.08,30.01,2,0,0,0.15
2014-8-5,87,73,60,74,65,60,99,80,47,30.05,29.92,3,0,0,0.03
2014-8-6,83,71,58,69,63,55,98,79,46,29.92,29.81,2,0,0,0.00
2014-8-7,77,62,52,67,57,50,97,83,55,29.98,29.88,1,0,0,0.04
2014-8-8,82,66,53,64,57,51,97,76,41,30.07,29.97,3,0,0,0.00
2014-8-9,85,69,54,66,58,52,98,73,41,30.12,30.05,3,0,0,0.00
2014-8-10,86,69,54,67,58,52,98,73,38,30.16,30.11,2,0,0,0.00
2014-8-11,87,70,54,67,61,53,99,75,44,30.18,30.09,4,0,0,0.00
2014-8-12,79,69,58,66,61,57,98,77,55,30.14,30.03,5,0,0,0.00
2014-8-13,69,65,59,65,64,59,98,95,83,30.03,29.64,7,1,0,2.55
2014-8-14,73,62,50,61,56,49,99,83,56,29.90,29.70,3,0,0,0.01
2014-8-15,71,60,50,60,55,49,98,83,59,29.96,29.86,3,0,0,0.00
2014-8-16,75,68,59,60,56,53,89,68,50,30.00,29.93,6,0,0,0.00
2014-8-17,78,64,54,66,58,52,98,82,59,29.93,29.80,3,0,0,0.01
2014-8-18,71,56,51,58,52,49,98,88,60,29.93,29.83,1,0,0,0.00
2014-8-19,79,61,45,62,53,44,100,78,46,30.00,29.91,2,0,0,0.00
2014-8-20,82,64,47,65,56,46,98,77,43,30.10,30.00,2,0,0,0.00
2014-8-21,69,59,52,63,56,51,97,90,80,30.13,30.08,0,0,0,0.03
2014-8-22,66,62,58,65,61,57,98,97,94,30.15,30.11,1,0,0,0.47
2014-8-23,73,63,54,65,60,53,99,88,71,30.17,30.13,1,0,0,0.00
2014-8-24,82,65,50,67,59,49,99,83,52,30.20,30.13,2,0,0,0.00
2014-8-25,88,69,55,72,62,54,99,82,42,30.19,30.12,2,0,0,0.00
2014-8-26,87,70,55,73,63,54,99,82,50,30.18,30.05,4,0,0,0.00
2014-8-27,89,76,65,74,69,63,91,78,58,30.05,29.86,3,0,0,0.00
2014-8-28,79,67,56,68,59,51,98,77,51,30.03,29.83,3,0,0,0.00
2014-8-29,77,63,50,61,54,49,97,77,48,30.30,30.03,3,0,0,0.00
2014-8-30,76,63,47,62,56,46,100,80,51,30.33,30.14,10,1,0,0.00
2014-8-31,83,74,64,74,69,61,96,86,73,30.14,29.95,9,1,0,0.03
2014-9-1,88,76,68,73,70,66,98,83,55,30.00,29.92,3,0,0,0.00
2014-9-2,88,75,65,77,71,64,99,89,61,29.95,29.73,3,0,0,0.10
2014-9-3,83,71,60,73,64,58,98,82,51,30.11,29.72,3,0,0,0.14
2014-9-4,85,69,52,67,60,51,99,77,50,30.22,30.11,3,0,0,0.00
2014-9-5,87,75,61,73,68,60,97,78,60,30.17,29.98,11,1,0,0.00
2014-9-6,89,77,66,76,71,65,97,84,63,29.97,29.76,7,1,0,0.23
2014-9-7,77,65,52,65,58,50,99,82,45,30.25,29.94,2,0,0,0.08
2014-9-8,75,60,47,61,51,46,98,78,46,30.41,30.25,3,0,0,0.00
2014-9-9,69,57,46,59,51,45,98,81,51,30.41,30.25,4,0,0,0.00
2014-9-10,71,61,54,61,57,52,96,88,69,30.25,30.07,1,0,0,0.00
2014-9-11,73,66,57,68,63,56,98,90,83,30.07,29.80,9,1,0,0.00
2014-9-12,73,60,45,56,52,44,96,77,50,30.28,29.94,2,0,0,0.00
2014-9-13,62,54,43,56,51,42,97,90,73,30.34,30.15,1,0,0,0.25
2014-9-14,66,53,42,53,48,41,98,85,54,30.28,30.15,1,0,0,0.01
2014-9-15,65,49,35,51,44,34,98,84,52,30.30,30.14,2,0,0,0.00
2014-9-16,62,51,45,60,50,43,99,95,90,30.15,29.98,1,0,0,0.08
2014-9-17,70,54,42,59,48,41,99,83,49,30.06,29.98,2,0,0,0.00
2014-9-18,74,55,39,58,48,38,99,80,49,30.20,29.97,1,0,0,0.00
2014-9-19,60,46,33,43,37,32,97,74,37,30.47,30.20,3,0,0,0.00
2014-9-20,69,52,30,58,47,29,100,83,68,30.44,30.12,7,1,0,0.00
2014-9-21,78,65,51,72,63,49,100,93,79,30.12,29.58,3,0,0,0.85
2014-9-22,71,60,42,65,53,39,98,77,52,30.12,29.55,3,0,0,0.00
2014-9-23,70,52,35,53,45,34,98,80,49,30.48,30.12,4,0,0,0.00
2014-9-24,67,52,40,58,48,39,98,85,64,30.67,30.48,4,0,0,0.00
2014-9-25,61,50,40,54,47,39,98,89,72,30.60,30.30,0,0,0,0.00
2014-9-26,77,58,43,62,52,42,98,84,53,30.30,30.18,2,0,0,0.00
2014-9-27,84,63,48,66,58,48,99,84,49,30.22,30.15,3,0,0,0.00
2014-9-28,86,66,49,70,60,48,99,84,50,30.19,30.00,2,0,0,0.00
2014-9-29,79,61,52,66,57,52,98,88,59,30.07,29.96,2,0,0,0.00
2014-9-30,59,56,54,56,55,53,97,95,89,30.08,30.03,0,0,0,0.04
2014-10-1,57,56,55,57,56,55,98,98,97,30.17,30.07,0,0,0,0.42
2014-10-2,57,54,44,56,53,43,99,97,93,30.23,30.16,1,0,0,0.42
2014-10-3,65,51,39,56,48,39,99,88,62,30.20,29.95,2,0,0,0.00
2014-10-4,61,56,51,61,55,50,100,97,96,29.94,29.55,2,0,0,0.31
2014-10-5,61,50,36,55,44,35,98,84,50,29.98,29.59,4,0,0,0.01
2014-10-6,65,48,31,50,41,30,98,81,51,30.19,29.99,10,0,0,0.00
2014-10-7,72,57,40,62,52,39,99,84,59,30.18,30.00,14,1,0,0.00
2014-10-8,70,61,51,60,55,42,98,82,54,29.99,29.73,10,0,0,0.09
2014-10-9,63,50,37,44,40,35,96,72,43,30.03,29.90,5,0,0,0.00
2014-10-10,62,48,39,45,40,37,96,76,51,30.18,30.03,5,0,0,0.00
2014-10-11,52,43,37,49,42,36,97,95,85,30.18,30.10,2,0,0,0.25
2014-10-12,62,45,32,51,40,31,99,85,50,30.34,30.18,2,0,0,0.00
2014-10-13,60,46,29,54,43,28,98,89,75,30.40,30.28,5,0,0,0.00
2014-10-14,74,62,52,66,59,50,98,88,71,30.29,30.17,5,0,0,0.00
2014-10-15,78,68,57,69,64,56,99,89,70,30.17,29.98,7,0,0,0.00
2014-10-16,70,67,59,69,66,59,98,97,94,29.98,29.68,5,0,0,1.28
2014-10-17,70,60,54,62,56,53,99,86,58,29.70,29.62,6,0,0,0.01
2014-10-18,67,58,52,61,55,49,97,89,74,29.69,29.52,6,0,0,0.02
2014-10-19,55,48,37,49,40,28,88,72,55,30.01,29.63,2,0,0,0.00
2014-10-20,56,43,30,40,34,27,90,71,50,30.09,30.00,6,0,0,0.00
2014-10-21,60,49,40,54,47,39,99,90,81,30.06,29.95,1,0,0,0.00
2014-10-22,51,48,46,49,48,46,98,97,93,30.10,29.90,4,0,0,0.68
2014-10-23,50,48,46,50,48,45,99,99,98,29.91,29.70,3,0,0,3.25
2014-10-24,50,48,42,49,47,41,99,96,88,29.79,29.73,1,0,0,0.10
2014-10-25,64,50,37,50,44,36,99,83,53,29.80,29.53,3,0,0,0.00
2014-10-26,56,48,40,47,43,37,95,81,64,29.73,29.46,3,0,0,0.00
2014-10-27,61,48,38,45,41,36,92,77,52,30.06,29.73,2,0,0,0.00
2014-10-28,66,48,35,55,44,34,98,86,61,30.11,29.98,3,0,0,0.00
2014-10-29,69,52,44,61,50,43,99,92,71,29.98,29.81,1,0,0,0.08
2014-10-30,58,45,35,48,40,33,98,85,56,30.04,29.92,3,0,0,0.01
2014-10-31,52,44,37,41,39,36,96,84,64,30.10,30.02,1,0,0,0.00
2014-11-1,42,40,37,41,37,35,97,92,83,30.02,29.88,1,0,0,0.41
2014-11-2,39,37,35,36,29,19,97,75,52,29.91,29.72,3,0,0,0.01
2014-11-3,52,39,30,31,24,17,87,57,26,30.10,29.89,3,0,0,0.00
2014-11-4,60,46,30,42,36,28,91,72,39,30.18,30.02,5,0,0,0.00
2014-11-5,64,51,34,48,39,32,91,64,41,30.16,29.98,3,0,0,0.00
2014-11-6,44,41,34,44,40,32,98,94,85,30.15,29.56,0,0,0,0.43
2014-11-7,45,41,34,44,38,28,98,89,76,29.84,29.52,2,0,0,0.04
2014-11-8,46,38,28,31,28,23,88,69,44,30.00,29.85,2,0,0,0.00
2014-11-9,54,42,28,39,33,26,93,72,54,30.06,29.90,3,0,0,0.00
2014-11-10,57,39,26,39,32,25,97,78,44,30.24,30.06,3,0,0,0.00
2014-11-11,61,43,28,51,39,27,97,87,66,30.23,30.02,3,0,0,0.00
2014-11-12,64,51,34,56,46,31,96,85,69,30.05,29.86,4,0,0,0.00
2014-11-13,50,38,26,35,30,25,97,76,47,30.12,30.00,1,0,0,0.06
2014-11-14,43,33,25,37,28,21,97,83,50,30.14,29.95,1,0,0,0.09
2014-11-15,39,28,20,25,20,16,94,73,44,30.39,30.15,2,0,0,0.00
2014-11-16,41,31,18,27,23,16,92,73,54,30.42,30.16,3,0,0,0.00
2014-11-17,36,35,33,35,33,26,97,93,67,30.16,29.48,1,0,0,1.34
2014-11-18,36,29,22,36,20,7,98,71,46,29.96,29.52,4,0,0,0.00
2014-11-19,36,26,21,17,11,6,69,54,40,30.19,29.95,10,0,0,0.01
2014-11-20,43,32,25,26,19,12,79,59,42,30.09,29.80,7,1,0,0.00
2014-11-21,34,26,20,18,13,8,76,59,45,30.47,29.96,2,0,0,0.00
2014-11-22,39,30,18,23,14,9,80,54,34,30.48,30.10,7,0,0,0.00
2014-11-23,59,45,34,43,34,23,90,68,51,30.16,30.09,3,0,0,0.00
2014-11-24,65,51,34,62,49,32,99,91,83,30.10,29.57,4,1,0,0.68
2014-11-25,61,52,34,56,43,30,90,72,46,30.14,29.71,4,0,0,0.01
2014-11-26,37,34,32,35,32,30,97,93,88,30.24,29.77,0,0,0,1.47
2014-11-27,36,32,28,34,30,26,97,94,91,30.07,29.77,0,0,0,0.09
2014-11-28,34,27,19,30,24,17,96,91,81,30.27,30.05,1,0,0,0.05
2014-11-29,34,21,10,25,18,8,97,86,60,30.39,30.26,2,0,0,0.00
2014-11-30,49,38,23,40,34,22,97,87,68,30.30,30.05,4,0,0,0.00
2014-12-1,56,45,34,46,39,28,86,79,68,30.49,30.03,5,0,0,0.00
2014-12-2,33,30,28,30,24,19,95,79,61,30.76,30.46,1,0,0,0.00
2014-12-3,45,37,31,44,35,28,98,94,76,30.45,29.91,8,0,0,0.68
2014-12-4,40,31,21,28,24,19,92,78,57,30.61,30.14,4,0,0,0.00
2014-12-5,36,26,15,30,22,13,96,84,64,30.75,30.50,0,0,0,0.00
2014-12-6,35,33,31,34,32,30,97,97,95,30.50,30.20,0,0,0,1.29
2014-12-7,35,28,16,33,19,5,97,71,49,30.76,30.30,2,0,0,0.01
2014-12-8,23,18,12,21,11,4,92,74,64,30.85,30.60,1,0,0,0.00
2014-12-9,37,31,24,37,30,20,98,95,87,30.59,29.62,1,0,0,1.41
2014-12-10,37,35,34,36,35,34,98,98,98,29.64,29.48,0,0,0,0.38
2014-12-11,34,32,30,34,31,28,98,95,90,29.83,29.48,4,0,0,0.05
2014-12-12,38,32,28,32,29,26,92,87,79,29.94,29.83,2,0,0,0.01
2014-12-13,39,32,27,32,28,25,92,85,71,29.92,29.84,3,0,0,0.01
2014-12-14,43,31,25,33,27,23,96,87,68,29.96,29.83,1,0,0,0.00
2014-12-15,43,29,22,35,26,21,100,88,65,30.21,29.96,1,0,0,0.01
2014-12-16,34,29,21,32,28,20,96,94,87,30.21,29.98,0,0,0,0.08
2014-12-17,46,39,33,45,38,32,99,95,88,29.98,29.74,2,0,0,0.59
2014-12-18,41,36,33,35,32,29,94,84,72,29.91,29.75,3,0,0,0.01
2014-12-19,34,30,21,29,24,19,91,80,70,30.20,29.91,1,0,0,0.00
2014-12-20,36,27,18,27,22,17,97,83,66,30.37,30.21,1,0,0,0.00
2014-12-21,34,31,29,29,27,24,90,85,79,30.42,30.34,1,0,0,0.00
2014-12-22,38,33,30,33,30,28,96,90,78,30.45,30.34,0,0,0,0.03
2014-12-23,40,37,34,40,36,33,98,97,96,30.34,30.22,1,0,0,0.52
2014-12-24,40,38,36,39,37,36,98,98,98,30.22,29.60,0,0,0,0.57
2014-12-25,55,43,38,54,39,30,99,85,64,30.00,29.49,4,0,0,0.10
2014-12-26,48,38,30,36,31,28,94,78,60,30.20,30.00,3,0,0,0.00
2014-12-27,51,37,28,38,32,26,95,84,60,30.25,30.04,1,0,0,0.00
2014-12-28,49,43,34,45,37,29,94,78,65,30.04,29.79,4,0,0,0.05
2014-12-29,41,30,21,29,22,16,94,74,49,30.27,30.03,2,0,0,0.00
2014-12-30,30,20,12,15,8,-2,85,61,34,30.41,30.27,1,0,0,0.00
2014-12-31,29,16,6,15,7,3,86,70,46,30.37,30.16,1,0,0,0.00
2015-1-1,31,22,6,15,10,3,90,63,43,30.15,29.95,4,0,0,0.00
2015-1-2,37,30,24,23,18,14,74,61,54,30.50,29.97,2,0,0,0.00